Content
SEND FEEDBACK

Daily
Averages
Monthly
Summary
United States of America

ST. LOUIS, MISSOURI


Home > North America > United States > Missouri
Elevation: 535 feet     Latitude: 38 45N     Longitude: 090 22W

WEATHER
 
SELECT A DAY
Number of Records: 199,751;   Date Range: 1/1/95 - 10/24/14
 
SHARE

PRINT THIS DATA

[ ← Previous Day ]
WEATHER ALMANAC - AUGUST 8, 2014
[ Next Day → ]
[ °C ]   °F
Weather ElementAverageHighLow
Temperature74.3 °F82 °F (12:54 pm)71.6 °F (7:01 pm)
Dewpoint70.6 °F71.6 °F (1:11 pm)69.8 °F (1:23 am)
Humidity88.5 %97 % (4:54 am)67 % (12:54 pm)
Barometer29.89 in29.95 in (4:54 pm)29.85 in (3:54 pm)
Wind Speed5.3 mph10.4 mph (12:54 pm)
Weather ElementAverage
Visibility7.6 mi
Wind DirectionESE (113.3 °)

Weather ElementTotal
Precipitation0.11 in
Cooling Degree Days11.8 (Base 65)
Growing Degree Days26.8 (Base 50)
Averaged from 42 records on August 8, 2014
WEATHER CONDITIONS BREAKOUT
WIND DIRECTION BREAKOUT
WEATHER BY HOUR - AUGUST 8, 2014
[ °C ]   °F
Local TimeTemperatureDewpointHumidityBarometerVisibilityWind DirectionWind SpeedGust SpeedPrecipitationEventsConditions
12:49 AM73.4 °F71.6 °F94 %29.87 in9.0 miSE (130°)5.8 mphOvercast
12:54 AM73.0 °F71.1 °F93 %29.86 in10.0 miSE (140°)4.6 mphOvercast
1:54 AM73.0 °F70.0 °F90 %29.85 in10.0 miSE (140°)8.1 mphOvercast
2:54 AM72.0 °F70.0 °F93 %29.85 in10.0 miSE (130°)4.6 mphOvercast
3:02 AM71.6 °F69.8 °F94 %29.87 in10.0 miESE (120°)3.5 mphOvercast
3:10 AM71.6 °F69.8 °F94 %29.87 in10.0 miESE (110°)4.6 mphOvercast
3:29 AM71.6 °F69.8 °F94 %29.87 in9.0 miESE (120°)4.6 mphOvercast
3:54 AM72.0 °F70.0 °F93 %29.86 in8.0 miSE (130°)4.6 mphOvercast
4:05 AM71.6 °F69.8 °F94 %29.87 in8.0 miSE (140°)3.5 mphOvercast
4:16 AM71.6 °F69.8 °F94 %29.87 in7.0 miSSE (150°)4.6 mphOvercast
4:31 AM71.6 °F69.8 °F94 %29.88 in7.0 miSSE (150°)3.5 mphMostly Cloudy
4:45 AM71.6 °F69.8 °F94 %29.87 in7.0 miCalmMostly Cloudy
4:54 AM72.0 °F70.0 °F93 %29.86 in7.0 miCalmOvercast
5:51 AM71.6 °F69.8 °F94 %29.87 in4.0 miSSE (160°)5.8 mphOvercast
5:54 AM72.0 °F70.0 °F93 %29.86 in4.0 miSSE (150°)5.8 mphOvercast
6:34 AM71.6 °F69.8 °F94 %29.89 in7.0 miSouth (180°)5.8 mphOvercast
6:54 AM72.0 °F71.1 °F97 %29.87 in6.0 miSouth (170°)4.6 mphMostly Cloudy
7:11 AM73.4 °F71.6 °F94 %29.89 in8.0 miSouth (180°)4.6 mphMostly Cloudy
7:31 AM73.4 °F71.6 °F94 %29.90 in8.0 miCalmMostly Cloudy
7:54 AM73.0 °F71.1 °F93 %29.88 in10.0 miCalmMostly Cloudy
8:54 AM75.0 °F71.1 °F87 %29.89 in7.0 miWest (260°)3.5 mphOvercast
9:54 AM75.9 °F71.1 °F85 %29.90 in10.0 miCalmMostly Cloudy
10:54 AM79.0 °F70.0 °F74 %29.90 in10.0 miWSW (240°)8.1 mphMostly Cloudy
11:54 AM79.0 °F71.1 °F77 %29.89 in10.0 miWNW (300°)8.1 mphMostly Cloudy
12:54 PM82.0 °F70.0 °F67 %29.88 in10.0 miWNW (300°)5.8 mphOvercast
1:54 PM82.0 °F70.0 °F67 %29.88 in10.0 miVariable6.9 mphMostly Cloudy
2:54 PM81.0 °F71.1 °F72 %29.88 in10.0 miWNW (290°)5.8 mphOvercast
3:54 PM82.0 °F70.0 °F67 %29.88 in10.0 miNorth (350°)9.2 mphMostly Cloudy
4:54 PM80.1 °F71.1 °F74 %29.88 in10.0 miNNE (20°)4.6 mphOvercast
5:54 PM80.1 °F70.0 °F71 %29.89 in10.0 miNNE (30°)6.9 mphMostly Cloudy
6:54 PM75.9 °F71.1 °F85 %29.89 in10.0 miENE (70°)10.4 mphMostly Cloudy
7:54 PM75.0 °F71.1 °F87 %29.89 in10.0 miENE (60°)5.8 mphOvercast
8:19 PM75.2 °F71.6 °F89 %29.93 in10.0 miNE (40°)5.8 mphOvercast
8:54 PM75.0 °F71.1 °F87 %29.91 in9.0 miNE (50°)6.9 mphOvercast
9:19 PM73.4 °F71.6 °F94 %29.94 in1.8 miNE (50°)6.9 mph0.03 inRainRain
9:54 PM73.0 °F71.1 °F93 %29.93 in1.5 miNE (40°)6.9 mph0.07 inRainLight Rain
10:01 PM73.4 °F71.6 °F94 %29.95 in2.0 miNE (50°)6.9 mph0.00 inRainLight Rain
10:05 PM73.4 °F71.6 °F94 %29.95 in2.0 miENE (60°)6.9 mph0.00 inRainLight Rain
10:13 PM73.4 °F71.6 °F94 %29.95 in3.0 miENE (60°)6.9 mph0.00 inRainLight Rain
10:54 PM72.0 °F71.1 °F97 %29.92 in4.0 miENE (70°)8.1 mph0.01 inOvercast
11:51 PM71.6 °F69.8 °F94 %29.95 in5.0 miENE (60°)5.8 mphOvercast
11:54 PM71.6 °F69.8 °F94 %29.95 in4.0 miENE (60°)5.8 mphOvercast
Hourly data recorded from KSUS, located miles away from St. Louis, Missouri







STORIES FROM OUR PARTNERS